Wind_Speed
35 35 34 34 33 33 32 33 33 32 32 32 32 32 33 33 33 32 31 32 33 33 33 33 33 33 33 33 33 34 34 34 34 34 35 35 36 36 37 38 38 39 40
37 36 36 36 36 35 35 34 34 34 34 34 34 34 33 33 33 33 33 33 34 34 33 33 33 34 34 34 34 35 34 35 35 35 37 37 38 38 39 39 40 40 41
39 38 38 38 38 38 38 37 36 36 36 35 35 35 35 34 34 34 34 34 34 34 34 34 34 35 35 36 36 36 36 36 36 36 37 39 39 40 40 41 41 42 43
41 40 38 38 39 40 39 39 39 38 38 37 37 37 36 35 34 35 34 35 35 35 35 35 35 35 36 37 37 37 38 39 39 39 39 40 40 41 42 42 43 43 44
42 41 40 40 40 40 40 41 41 40 39 39 38 37 37 36 36 35 35 35 35 35 36 36 36 37 37 38 39 39 40 40 41 41 41 41 42 42 43 43 44 45 45
44 43 42 41 40 41 41 40 41 41 40 39 39 38 38 37 37 37 36 35 35 36 37 37 37 38 38 39 40 41 42 42 42 43 43 43 43 43 43 44 45 45 46
45 45 44 44 42 41 41 40 40 41 42 40 39 39 39 39 39 37 36 36 36 37 37 38 39 39 39 41 42 42 43 43 44 44 44 44 44 44 44 44 45 46 47
46 45 44 45 45 44 43 41 41 42 42 41 41 40 40 40 40 39 38 38 37 38 39 39 40 40 41 42 42 43 44 44 44 44 44 43 45 45 45 46 47 48 48
46 46 46 46 46 45 45 44 43 43 42 41 41 41 41 41 39 39 39 39 39 40 41 41 41 41 42 42 43 44 44 44 44 44 44 44 45 46 46 46 47 48 49
47 47 47 47 46 46 45 46 45 44 43 42 42 42 42 41 41 39 40 41 41 41 42 42 41 42 42 43 43 43 44 44 45 45 45 45 46 46 46 46 47 48 49
47 47 47 46 46 46 46 46 47 46 44 44 43 43 43 42 42 41 41 41 41 41 41 41 41 42 42 42 42 43 44 44 45 45 45 46 47 46 47 47 48 49 49
49 49 48 48 47 46 46 46 47 46 44 45 45 44 44 43 43 43 42 41 41 41 41 40 41 42 42 42 42 43 44 45 45 45 45 46 46 47 48 48 49 49 49
49 49 48 49 48 47 46 45 46 46 45 44 43 43 43 42 43 43 43 42 41 41 40 41 42 42 41 42 43 43 44 44 44 44 45 46 46 47 48 48 49 49 48
47 47 46 46 47 47 47 46 46 44 43 43 42 42 42 42 42 43 42 41 41 41 41 42 42 41 42 42 42 42 42 43 43 43 44 46 47 48 48 48 49 48 48
45 46 45 45 45 45 45 45 44 43 41 41 41 41 40 40 40 41 41 41 41 41 41 41 41 42 42 42 42 42 42 42 42 43 45 46 46 47 47 47 47 47 46
42 42 42 42 42 42 42 43 43 41 41 41 41 40 40 40 39 39 40 40 40 41 41 41 41 42 42 42 42 41 41 42 42 43 44 45 45 45 46 46 46 45 44
40 40 39 38 39 39 40 40 41 40 40 41 40 40 39 38 38 39 39 39 40 40 40 40 41 42 43 43 42 42 43 43 42 43 43 44 43 44 44 44 44 44 43
39 39 39 37 37 37 38 37 39 39 39 39 39 39 38 39 38 39 40 40 40 40 40 40 40 41 41 41 42 43 42 42 42 41 41 41 42 43 43 42 43 42 40
36 37 38 38 36 35 34 34 35 37 37 37 37 37 37 37 37 38 38 39 40 40 39 40 41 41 41 41 42 42 42 41 40 39 39 41 41 42 41 41 41 40 38
35 35 36 36 35 34 32 32 34 35 35 36 36 37 37 37 37 37 38 39 38 39 39 39 39 40 40 40 40 40 40 39 39 39 39 40 40 40 40 40 39 38 37
34 34 35 34 33 33 32 32 33 33 34 35 35 36 36 36 37 37 37 38 38 37 37 38 39 40 39 39 39 38 38 38 38 38 38 38 39 39 39 38 37 37 36
33 33 33 32 32 32 32 33 33 33 33 33 34 35 35 35 36 36 37 37 37 36 36 38 38 38 38 38 37 36 36 37 37 37 37 37 38 37 37 36 36 35 33
31 32 32 31 30 30 32 32 33 33 33 33 34 34 34 35 35 35 35 35 34 34 36 37 36 36 35 35 35 34 34 35 35 35 36 37 36 36 36 35 34 33 32
29 31 31 31 31 31 31 31 32 32 33 33 32 32 32 33 33 33 32 32 32 33 34 34 35 34 34 33 33 33 33 34 34 34 35 34 34 34 34 33 31 31 30
27 28 30 30 30 29 29 30 31 31 31 30 30 31 31 32 31 30 30 30 30 31 31 31 31 31 30 31 31 31 32 33 33 34 34 33 31 32 32 31 30 29 29
26 28 29 29 29 30 30 30 31 29 29 30 30 30 30 28 28 28 28 29 29 29 30 30 30 30 30 29 29 30 31 32 32 31 31 30 30 30 29 29 28 28 28
Wind_Direction
259 259 259 258 259 261 263 263 262 262 263 264 265 268 269 270 271 271 272 272 272 272 272 272 273 275 277 279 281 284 285 286 286 285 286 287 289 290 291 292 292 292 292
258 259 258 259 259 260 263 264 263 262 262 263 265 267 268 270 270 271 273 273 273 272 272 272 272 275 277 279 281 283 285 287 286 286 286 287 288 289 290 291 291 292 292
257 257 257 258 259 261 262 262 262 262 262 262 264 266 268 269 270 272 274 273 272 271 272 273 273 274 276 278 280 282 283 285 287 286 286 286 287 288 290 290 291 292 293
256 255 257 258 259 260 262 263 262 262 262 262 263 264 266 268 270 273 274 273 271 271 272 273 274 274 275 278 279 280 282 284 286 287 287 287 287 288 289 289 291 292 293
255 255 256 258 258 259 262 263 262 261 261 261 263 263 264 266 269 272 273 272 271 271 272 274 274 274 275 276 278 279 281 283 285 286 286 287 287 288 289 290 290 291 293
254 254 254 257 257 259 261 262 261 260 259 260 261 262 264 266 268 272 272 272 271 272 273 274 274 274 276 276 277 279 282 283 284 285 286 286 287 288 288 290 290 291 292
254 254 253 255 257 260 260 260 261 260 259 259 261 263 265 266 269 271 272 271 271 273 274 274 275 275 276 277 278 280 282 283 283 285 285 286 287 288 288 290 290 291 292
254 253 255 255 257 259 260 259 260 259 258 260 263 264 264 267 269 271 272 272 273 274 275 276 276 276 277 278 279 281 282 282 283 284 284 286 287 288 289 290 291 292 292
253 255 255 255 257 259 259 260 262 259 259 260 263 264 265 268 269 270 271 271 273 274 275 276 276 276 277 279 280 281 282 282 283 283 284 285 287 288 289 291 292 292 292
254 254 255 256 257 258 259 260 260 260 259 260 261 263 265 266 268 270 271 271 273 275 276 276 276 277 278 279 280 281 281 281 282 283 283 285 287 288 289 291 292 292 292
251 253 255 256 256 257 258 259 260 260 260 260 261 263 265 267 268 270 271 271 273 275 276 276 277 277 278 279 279 280 281 282 282 282 283 285 287 288 290 291 292 293 292
251 254 255 255 256 257 257 258 259 259 260 261 261 262 264 267 269 270 270 270 272 272 273 275 277 277 278 279 280 281 281 282 282 281 282 285 286 288 290 290 291 292 292
251 252 254 254 255 256 256 257 258 258 259 260 260 262 264 267 268 269 270 271 271 271 271 274 275 276 277 279 280 281 281 282 281 282 282 285 287 288 289 289 290 291 291
251 252 253 254 255 256 256 257 258 257 258 258 259 262 263 266 267 269 270 270 269 270 272 274 275 276 276 278 279 280 281 282 282 283 285 286 287 288 288 290 290 291 290
252 253 253 254 255 257 257 257 256 255 257 258 258 261 263 266 267 269 268 270 270 270 272 274 274 276 278 280 281 283 283 283 284 286 287 287 288 289 289 289 290 291 289
255 253 252 253 254 255 256 256 255 256 257 258 260 261 264 266 267 268 269 270 271 272 273 274 275 277 279 280 281 283 283 284 285 287 288 288 289 289 289 289 290 291 291
255 251 251 253 254 254 254 254 254 255 258 260 261 263 266 267 267 268 270 270 273 275 275 276 277 278 279 281 282 283 284 285 286 287 287 287 287 289 289 289 290 291 291
254 251 250 250 252 252 253 255 255 256 258 259 261 263 266 266 267 269 270 271 274 275 277 277 278 278 280 282 283 282 284 284 285 286 286 287 288 289 290 291 292 293 293
252 251 249 250 252 252 252 254 255 255 256 259 261 264 266 266 266 268 270 271 273 275 277 279 280 282 282 283 285 285 285 285 285 286 286 288 289 290 291 293 293 293 294
252 249 249 250 251 251 252 254 255 255 256 259 262 264 265 266 268 270 272 273 274 276 278 279 281 281 282 284 286 286 286 286 285 286 287 290 292 292 293 294 293 293 293
252 250 248 249 250 254 253 254 257 256 256 259 262 264 266 267 269 271 273 275 276 277 278 280 281 282 283 285 285 284 285 286 285 286 289 291 292 292 293 293 293 292 292
251 251 251 251 253 253 254 255 256 257 258 260 263 266 266 268 270 271 272 274 275 276 279 281 281 282 284 285 285 284 285 287 286 287 289 290 291 292 292 292 292 292 292
251 252 251 252 253 254 256 258 259 259 259 260 263 264 266 269 270 271 273 274 275 277 279 280 281 283 284 285 285 285 286 288 288 289 290 291 291 292 292 292 292 291 290
249 250 250 252 255 257 259 260 260 261 260 262 263 265 267 269 270 272 273 275 276 278 280 281 281 282 282 283 284 285 287 288 288 292 293 293 290 292 292 292 290 290 289
249 250 251 253 256 258 260 261 261 262 262 262 263 266 269 269 269 272 273 274 276 279 280 280 282 283 283 284 285 286 287 288 289 291 291 292 291 293 293 292 289 288 289
250 251 253 255 258 259 260 261 262 262 263 263 266 268 269 268 270 272 275 276 278 279 279 280 281 282 282 283 286 288 288 288 290 292 291 292 293 294 294 293 290 288 289
Height
5780 5780 5780 5781 5781 5782 5782 5781 5782 5782 5782 5783 5784 5784 5785 5785 5785 5786 5786 5786 5786 5786 5786 5787 5787 5786 5786 5785 5784 5783 5782 5780 5779 5777 5775 5773 5771 5769 5766 5764 5761 5758 5755
5771 5772 5772 5773 5773 5774 5774 5774 5774 5773 5774 5775 5776 5776 5777 5777 5777 5777 5777 5778 5778 5778 5778 5778 5778 5778 5778 5777 5776 5775 5774 5772 5770 5769 5767 5765 5763 5761 5758 5755 5752 5749 5746
5762 5762 5763 5764 5765 5765 5765 5765 5765 5765 5766 5767 5767 5768 5769 5769 5769 5769 5769 5769 5769 5770 5770 5770 5770 5770 5769 5768 5768 5767 5765 5764 5762 5760 5758 5756 5754 5752 5749 5746 5743 5740 5737
5752 5753 5754 5755 5756 5756 5756 5756 5756 5756 5757 5758 5759 5760 5761 5761 5761 5761 5761 5761 5761 5761 5761 5761 5761 5761 5761 5760 5759 5758 5756 5755 5753 5751 5749 5747 5745 5742 5740 5737 5734 5731 5727
5741 5743 5745 5746 5746 5746 5747 5747 5747 5747 5748 5750 5751 5752 5752 5752 5753 5752 5752 5752 5752 5752 5752 5752 5752 5752 5751 5750 5750 5749 5747 5746 5744 5742 5740 5738 5735 5733 5730 5727 5724 5721 5717
5731 5733 5735 5736 5736 5737 5737 5737 5737 5738 5739 5741 5742 5743 5744 5744 5744 5744 5744 5744 5744 5744 5743 5743 5743 5743 5742 5741 5740 5739 5738 5736 5734 5732 5730 5727 5725 5723 5720 5717 5714 5710 5707
5720 5722 5724 5726 5726 5727 5728 5728 5729 5729 5730 5731 5733 5734 5734 5735 5735 5735 5735 5735 5735 5735 5734 5734 5733 5733 5732 5731 5731 5729 5728 5726 5724 5722 5720 5718 5715 5712 5709 5706 5703 5699 5696
5710 5712 5714 5715 5716 5717 5718 5718 5719 5720 5721 5722 5723 5724 5725 5726 5726 5726 5726 5726 5726 5726 5725 5725 5724 5723 5723 5722 5721 5719 5718 5716 5714 5712 5710 5707 5705 5702 5699 5695 5692 5688 5684
5700 5701 5703 5705 5705 5706 5707 5709 5710 5710 5712 5713 5713 5714 5715 5717 5717 5717 5717 5717 5716 5716 5716 5715 5714 5713 5712 5712 5710 5709 5707 5705 5704 5702 5699 5697 5694 5691 5688 5684 5681 5676 5672
5689 5690 5692 5694 5695 5696 5697 5698 5700 5701 5702 5703 5704 5705 5706 5707 5707 5708 5708 5707 5707 5706 5706 5705 5704 5703 5702 5701 5700 5698 5696 5695 5693 5691 5688 5686 5683 5680 5677 5673 5669 5665 5661
5677 5679 5681 5683 5684 5686 5687 5688 5690 5691 5692 5694 5695 5696 5696 5697 5697 5698 5698 5698 5697 5696 5695 5695 5694 5693 5692 5690 5689 5688 5686 5684 5682 5679 5677 5675 5672 5669 5666 5662 5658 5653 5649
5665 5667 5670 5672 5673 5675 5676 5678 5680 5681 5682 5684 5685 5686 5687 5688 5687 5687 5688 5688 5688 5687 5685 5684 5684 5683 5681 5680 5678 5676 5674 5672 5670 5668 5666 5663 5661 5658 5654 5650 5646 5641 5637
5653 5655 5657 5660 5662 5664 5666 5668 5669 5671 5672 5674 5675 5676 5677 5677 5677 5677 5678 5678 5677 5677 5675 5674 5673 5672 5670 5668 5667 5665 5663 5661 5658 5656 5654 5652 5649 5646 5642 5638 5634 5629 5625
5641 5643 5645 5648 5651 5653 5655 5657 5659 5660 5662 5664 5665 5666 5667 5667 5667 5667 5667 5667 5666 5666 5665 5664 5663 5661 5659 5658 5656 5654 5652 5649 5647 5645 5642 5640 5637 5633 5630 5626 5621 5617 5612
5629 5631 5634 5637 5640 5642 5644 5646 5649 5650 5652 5654 5655 5656 5656 5656 5657 5657 5657 5656 5656 5655 5656 5654 5653 5651 5649 5647 5645 5643 5640 5638 5636 5633 5631 5628 5625 5621 5618 5614 5609 5605 5601
5618 5621 5624 5627 5630 5632 5634 5636 5638 5640 5642 5644 5645 5646 5647 5647 5647 5647 5647 5646 5645 5645 5645 5644 5643 5641 5638 5636 5634 5631 5629 5627 5625 5622 5619 5616 5613 5610 5606 5602 5598 5594 5590
5608 5611 5615 5618 5620 5622 5624 5626 5629 5631 5633 5634 5636 5637 5637 5637 5637 5637 5637 5636 5635 5635 5634 5634 5632 5630 5627 5625 5623 5621 5619 5616 5614 5611 5608 5605 5602 5598 5594 5591 5587 5583 5580
5599 5603 5606 5609 5611 5613 5615 5617 5619 5621 5623 5625 5626 5627 5627 5628 5628 5627 5627 5626 5626 5624 5624 5623 5622 5619 5617 5615 5612 5610 5607 5605 5602 5600 5597 5594 5591 5587 5584 5580 5577 5573 5569
5591 5594 5598 5601 5603 5605 5607 5608 5610 5612 5614 5615 5616 5617 5617 5618 5618 5617 5617 5616 5615 5614 5613 5612 5610 5608 5606 5604 5601 5599 5596 5594 5591 5588 5585 5583 5579 5576 5573 5570 5566 5563 5560
5583 5586 5590 5592 5594 5596 5598 5600 5602 5603 5605 5606 5607 5607 5608 5608 5608 5608 5607 5606 5605 5604 5603 5601 5599 5598 5595 5593 5590 5588 5586 5583 5580 5577 5575 5572 5569 5566 5563 5560 5557 5554 5550
5576 5578 5581 5583 5586 5588 5590 5591 5593 5594 5596 5597 5597 5598 5598 5598 5598 5598 5597 5596 5595 5594 5592 5591 5589 5587 5585 5582 5580 5577 5575 5573 5570 5567 5565 5562 5559 5556 5553 5550 5547 5544 5541
5568 5570 5573 5575 5578 5579 5581 5583 5584 5586 5587 5588 5588 5588 5588 5588 5588 5588 5587 5586 5585 5584 5582 5581 5579 5577 5575 5572 5570 5568 5566 5563 5561 5559 5556 5553 5550 5546 5543 5540 5537 5534 5532
5561 5563 5565 5568 5570 5571 5573 5574 5575 5577 5578 5579 5579 5580 5580 5579 5579 5578 5577 5576 5575 5574 5572 5571 5569 5567 5565 5563 5561 5559 5556 5554 5552 5550 5546 5544 5540 5537 5534 5531 5528 5526 5523
5553 5556 5558 5560 5562 5564 5565 5566 5567 5568 5570 5570 5571 5571 5571 5571 5570 5570 5569 5567 5566 5564 5563 5561 5560 5558 5556 5553 5552 5550 5548 5545 5543 5540 5537 5534 5531 5528 5525 5522 5519 5517 5515
5546 5548 5550 5553 5554 5555 5556 5557 5558 5560 5561 5561 5562 5563 5563 5562 5562 5561 5560 5559 5558 5556 5553 5552 5550 5548 5547 5545 5543 5541 5539 5537 5535 5532 5528 5526 5523 5521 5518 5514 5511 5509 5506
5539 5540 5542 5544 5546 5547 5548 5549 5550 5551 5552 5553 5554 5554 5554 5553 5553 5552 5552 5551 5550 5548 5546 5544 5542 5541 5539 5537 5535 5533 5530 5528 5526 5524 5521 5518 5516 5513 5511 5507 5504 5501 5499